N244BR KSAN-KOAK

Flight info

Callsign N244BR
Flight time 1h 33m
Altitude VFR/080
Route VFR N
Aircraft C25C/M-VGD/A

Departure

Time 2026-04-23 03:19
Airport San Diego International Airport (KSAN)

Arrival

Time 2026-04-23 04:52
Airport San Francisco Bay Oakland International Airport (KOAK)
Time Latitude Longitude Altitude Speed Heading
2026-04-23 02:56 32.73534 -117.20556 15 ft 0 kts 165°
2026-04-23 03:02 32.73536 -117.20556 15 ft 2 kts 163°
2026-04-23 03:03 32.73547 -117.20560 14 ft 0 kts 165°
2026-04-23 03:03 32.73553 -117.20562 14 ft 2 kts 165°
2026-04-23 03:03 32.73571 -117.20569 14 ft 3 kts 154°
2026-04-23 03:03 32.73592 -117.20592 14 ft 4 kts 128°
2026-04-23 03:04 32.73599 -117.20620 15 ft 0 kts 61°
2026-04-23 03:04 32.73600 -117.20617 15 ft 4 kts 62°
2026-04-23 03:04 32.73605 -117.20524 14 ft 15 kts 91°
2026-04-23 03:04 32.73599 -117.20400 15 ft 14 kts 103°
2026-04-23 03:05 32.73575 -117.20297 19 ft 12 kts 104°
2026-04-23 03:05 32.73554 -117.20212 20 ft 10 kts 105°
2026-04-23 03:05 32.73534 -117.20128 20 ft 11 kts 105°
2026-04-23 03:05 32.73511 -117.20035 20 ft 12 kts 105°
2026-04-23 03:06 32.73488 -117.19942 21 ft 12 kts 107°
2026-04-23 03:06 32.73467 -117.19851 21 ft 11 kts 105°
2026-04-23 03:06 32.73444 -117.19758 23 ft 11 kts 107°
2026-04-23 03:06 32.73443 -117.19753 23 ft 0 kts 106°
2026-04-23 03:09 32.73415 -117.19635 22 ft 26 kts 106°
2026-04-23 03:09 32.73365 -117.19428 20 ft 26 kts 107°
2026-04-23 03:10 32.73314 -117.19219 17 ft 26 kts 106°
2026-04-23 03:10 32.73265 -117.19018 20 ft 25 kts 105°
2026-04-23 03:10 32.73219 -117.18825 20 ft 24 kts 107°
2026-04-23 03:10 32.73174 -117.18643 21 ft 23 kts 105°
2026-04-23 03:11 32.73131 -117.18454 17 ft 24 kts 110°
2026-04-23 03:11 32.73083 -117.18268 17 ft 23 kts 106°
2026-04-23 03:11 32.73037 -117.18077 14 ft 24 kts 106°
2026-04-23 03:11 32.72992 -117.17895 13 ft 19 kts 114°
2026-04-23 03:12 32.72912 -117.17778 12 ft 17 kts 78°
2026-04-23 03:12 32.72917 -117.17764 12 ft 0 kts 63°
2026-04-23 03:16 32.72932 -117.17728 13 ft 11 kts 63°
2026-04-23 03:16 32.72954 -117.17666 14 ft 0 kts 73°
2026-04-23 03:17 32.72962 -117.17639 15 ft 15 kts 72°
2026-04-23 03:17 32.73024 -117.17602 16 ft 3 kts 287°
2026-04-23 03:17 32.73024 -117.17603 16 ft 0 kts 286°
2026-04-23 03:18 32.73036 -117.17654 15 ft 40 kts 285°
2026-04-23 03:18 32.73226 -117.18441 18 ft 151 kts 285°
2026-04-23 03:19 32.73581 -117.19871 364 ft 200 kts 285°
2026-04-23 03:19 32.74026 -117.21485 1166 ft 207 kts 290°
2026-04-23 03:19 32.74634 -117.23126 1710 ft 240 kts 295°
2026-04-23 03:19 32.75497 -117.24975 2021 ft 269 kts 301°
2026-04-23 03:20 32.76570 -117.26808 2522 ft 254 kts 306°
2026-04-23 03:20 32.77522 -117.28301 3066 ft 203 kts 308°
2026-04-23 03:20 32.78374 -117.29509 3436 ft 183 kts 309°
2026-04-23 03:20 32.79160 -117.30661 3670 ft 176 kts 308°
2026-04-23 03:21 32.79889 -117.31874 3649 ft 184 kts 303°
2026-04-23 03:21 32.80617 -117.33151 3653 ft 188 kts 307°
2026-04-23 03:21 32.81507 -117.34310 3654 ft 191 kts 315°
2026-04-23 03:21 32.82461 -117.35422 3654 ft 196 kts 316°
2026-04-23 03:22 32.83436 -117.36524 4133 ft 191 kts 316°
2026-04-23 03:22 32.84397 -117.37607 4651 ft 197 kts 316°
2026-04-23 03:22 32.85488 -117.38843 5206 ft 236 kts 316°
2026-04-23 03:22 32.86699 -117.40211 5759 ft 234 kts 316°
2026-04-23 03:23 32.87844 -117.41506 6296 ft 221 kts 316°
2026-04-23 03:23 32.88927 -117.42733 6819 ft 210 kts 316°
2026-04-23 03:23 32.89962 -117.43899 7330 ft 200 kts 316°
2026-04-23 03:23 32.90959 -117.45025 7704 ft 200 kts 316°
2026-04-23 03:24 32.92001 -117.46204 7802 ft 212 kts 316°
2026-04-23 03:24 32.93109 -117.47454 7834 ft 226 kts 316°
2026-04-23 03:24 32.94274 -117.48773 7870 ft 236 kts 316°
2026-04-23 03:24 32.95488 -117.50148 7884 ft 245 kts 316°
2026-04-23 03:25 32.96749 -117.51572 7884 ft 253 kts 316°
2026-04-23 03:25 32.98039 -117.53037 7883 ft 259 kts 316°
2026-04-23 03:25 32.99360 -117.54529 7882 ft 264 kts 316°
2026-04-23 03:25 33.00701 -117.56050 7881 ft 268 kts 316°
2026-04-23 03:26 33.02059 -117.57589 7880 ft 271 kts 316°
2026-04-23 03:26 33.03431 -117.59141 7880 ft 273 kts 316°
2026-04-23 03:26 33.04809 -117.60706 7882 ft 272 kts 316°
2026-04-23 03:26 33.06165 -117.62236 7880 ft 265 kts 316°
2026-04-23 03:27 33.07491 -117.63743 7880 ft 262 kts 316°
2026-04-23 03:27 33.08807 -117.65229 7878 ft 260 kts 316°
2026-04-23 03:27 33.10118 -117.66714 7876 ft 258 kts 316°
2026-04-23 03:27 33.11413 -117.68181 7874 ft 257 kts 316°
2026-04-23 03:28 33.12709 -117.69644 7872 ft 256 kts 316°
2026-04-23 03:28 33.13997 -117.71105 7870 ft 255 kts 316°
2026-04-23 03:28 33.15265 -117.72536 7868 ft 254 kts 316°
2026-04-23 03:28 33.16547 -117.73988 7866 ft 254 kts 316°
2026-04-23 03:29 33.17829 -117.75438 7865 ft 254 kts 316°
2026-04-23 03:29 33.19109 -117.76884 7864 ft 253 kts 316°
2026-04-23 03:29 33.20385 -117.78331 7863 ft 253 kts 316°
2026-04-23 03:29 33.21663 -117.79773 7864 ft 253 kts 316°
2026-04-23 03:30 33.22938 -117.81217 7863 ft 253 kts 316°
2026-04-23 03:30 33.24213 -117.82660 7863 ft 252 kts 316°
2026-04-23 03:30 33.25489 -117.84101 7862 ft 252 kts 316°
2026-04-23 03:30 33.26762 -117.85544 7864 ft 252 kts 316°
2026-04-23 03:31 33.28036 -117.86981 7863 ft 252 kts 316°
2026-04-23 03:31 33.29310 -117.88423 7863 ft 252 kts 316°
2026-04-23 03:31 33.30585 -117.89866 7863 ft 252 kts 316°
2026-04-23 03:31 33.31859 -117.91303 7863 ft 252 kts 316°
2026-04-23 03:32 33.33131 -117.92745 7863 ft 252 kts 316°
2026-04-23 03:32 33.34405 -117.94183 7863 ft 252 kts 316°
2026-04-23 03:32 33.35679 -117.95624 7862 ft 252 kts 316°
2026-04-23 03:32 33.36951 -117.97064 7862 ft 252 kts 316°
2026-04-23 03:33 33.38228 -117.98504 7862 ft 252 kts 316°
2026-04-23 03:33 33.39498 -117.99943 7862 ft 252 kts 316°
2026-04-23 03:33 33.40771 -118.01380 7862 ft 252 kts 316°
2026-04-23 03:33 33.42049 -118.02824 7862 ft 252 kts 316°
2026-04-23 03:34 33.43322 -118.04265 7862 ft 252 kts 316°
2026-04-23 03:34 33.44596 -118.05701 7862 ft 252 kts 316°
2026-04-23 03:34 33.45871 -118.07145 7862 ft 252 kts 316°
2026-04-23 03:34 33.47144 -118.08583 7864 ft 252 kts 316°
2026-04-23 03:35 33.48420 -118.10023 7864 ft 252 kts 316°
2026-04-23 03:35 33.49691 -118.11462 7864 ft 252 kts 316°
2026-04-23 03:35 33.50969 -118.12902 7864 ft 252 kts 316°
2026-04-23 03:35 33.52243 -118.14344 7864 ft 252 kts 316°
2026-04-23 03:36 33.53516 -118.15781 7864 ft 252 kts 316°
2026-04-23 03:36 33.54792 -118.17221 7864 ft 252 kts 316°
2026-04-23 03:36 33.56065 -118.18662 7864 ft 252 kts 316°
2026-04-23 03:36 33.57342 -118.20101 7864 ft 252 kts 316°
2026-04-23 03:37 33.58617 -118.21544 7864 ft 252 kts 316°
2026-04-23 03:37 33.59894 -118.22986 7864 ft 252 kts 316°
2026-04-23 03:37 33.61164 -118.24419 7864 ft 252 kts 316°
2026-04-23 03:37 33.62442 -118.25866 7864 ft 252 kts 316°
2026-04-23 03:38 33.63709 -118.27294 7864 ft 252 kts 316°
2026-04-23 03:38 33.64982 -118.28733 7864 ft 252 kts 316°
2026-04-23 03:38 33.66259 -118.30175 7864 ft 252 kts 316°
2026-04-23 03:38 33.67535 -118.31614 7864 ft 252 kts 316°
2026-04-23 03:39 33.68812 -118.33059 7864 ft 252 kts 316°
2026-04-23 03:39 33.70089 -118.34498 7864 ft 252 kts 316°
2026-04-23 03:39 33.71366 -118.35941 7864 ft 252 kts 316°
2026-04-23 03:39 33.72640 -118.37381 7864 ft 252 kts 316°
2026-04-23 03:40 33.73917 -118.38820 7864 ft 252 kts 316°
2026-04-23 03:40 33.75195 -118.40266 7865 ft 252 kts 316°
2026-04-23 03:40 33.76477 -118.41712 7866 ft 253 kts 316°
2026-04-23 03:40 33.77759 -118.43159 7864 ft 253 kts 316°
2026-04-23 03:41 33.79041 -118.44608 7865 ft 253 kts 316°
2026-04-23 03:41 33.80324 -118.46054 7865 ft 253 kts 316°
2026-04-23 03:41 33.81602 -118.47500 7865 ft 252 kts 316°
2026-04-23 03:41 33.82882 -118.48943 7865 ft 252 kts 316°
2026-04-23 03:42 33.84164 -118.50390 7865 ft 252 kts 316°
2026-04-23 03:42 33.85442 -118.51834 7865 ft 252 kts 316°
2026-04-23 03:42 33.86740 -118.53253 7864 ft 252 kts 320°
2026-04-23 03:42 33.88118 -118.54556 7864 ft 252 kts 322°
2026-04-23 03:43 33.89510 -118.55836 7864 ft 252 kts 322°
2026-04-23 03:43 33.90907 -118.57113 7864 ft 252 kts 322°
2026-04-23 03:43 33.92307 -118.58385 7864 ft 252 kts 322°
2026-04-23 03:43 33.93703 -118.59660 7864 ft 252 kts 322°
2026-04-23 03:44 33.95103 -118.60934 7864 ft 252 kts 322°
2026-04-23 03:44 33.96501 -118.62207 7864 ft 252 kts 322°
2026-04-23 03:44 33.97901 -118.63484 7864 ft 252 kts 322°
2026-04-23 03:44 33.99301 -118.64756 7864 ft 252 kts 322°
2026-04-23 03:45 34.00696 -118.66029 7864 ft 252 kts 322°
2026-04-23 03:45 34.02098 -118.67306 7864 ft 252 kts 322°
2026-04-23 03:45 34.03498 -118.68580 7865 ft 252 kts 322°
2026-04-23 03:45 34.04893 -118.69854 7864 ft 252 kts 322°
2026-04-23 03:46 34.06296 -118.71129 7862 ft 252 kts 322°
2026-04-23 03:46 34.07697 -118.72406 7863 ft 252 kts 322°
2026-04-23 03:46 34.09097 -118.73682 7864 ft 252 kts 322°
2026-04-23 03:46 34.10480 -118.74940 7867 ft 252 kts 322°
2026-04-23 03:47 34.11902 -118.76237 7865 ft 253 kts 322°
2026-04-23 03:47 34.13288 -118.77498 7866 ft 253 kts 322°
2026-04-23 03:47 34.14692 -118.78776 7866 ft 253 kts 322°
2026-04-23 03:47 34.16097 -118.80058 7866 ft 253 kts 322°
2026-04-23 03:48 34.17501 -118.81335 7865 ft 253 kts 322°
2026-04-23 03:48 34.18907 -118.82615 7865 ft 253 kts 323°
2026-04-23 03:48 34.20313 -118.83896 7865 ft 253 kts 322°
2026-04-23 03:48 34.21719 -118.85174 7866 ft 253 kts 322°
2026-04-23 03:49 34.23122 -118.86453 7866 ft 253 kts 323°
2026-04-23 03:49 34.24529 -118.87735 7866 ft 253 kts 322°
2026-04-23 03:49 34.25938 -118.89015 7866 ft 253 kts 322°
2026-04-23 03:49 34.27342 -118.90296 7866 ft 253 kts 322°
2026-04-23 03:50 34.28747 -118.91574 7866 ft 253 kts 322°
2026-04-23 03:50 34.30154 -118.92854 7866 ft 253 kts 323°
2026-04-23 03:50 34.31558 -118.94134 7866 ft 253 kts 322°
2026-04-23 03:50 34.32963 -118.95410 7866 ft 253 kts 322°
2026-04-23 03:51 34.34371 -118.96694 7867 ft 253 kts 323°
2026-04-23 03:51 34.35776 -118.97974 7866 ft 253 kts 322°
2026-04-23 03:51 34.37179 -118.99250 7866 ft 253 kts 323°
2026-04-23 03:51 34.38587 -119.00533 7866 ft 253 kts 322°
2026-04-23 03:52 34.39995 -119.01811 7866 ft 253 kts 322°
2026-04-23 03:52 34.41397 -119.03091 7866 ft 253 kts 323°
2026-04-23 03:52 34.42806 -119.04373 7866 ft 253 kts 322°
2026-04-23 03:52 34.44217 -119.05656 7865 ft 254 kts 322°
2026-04-23 03:53 34.45633 -119.06947 7865 ft 254 kts 323°
2026-04-23 03:53 34.47049 -119.08233 7864 ft 254 kts 322°
2026-04-23 03:53 34.48463 -119.09521 7864 ft 254 kts 323°
2026-04-23 03:53 34.49878 -119.10810 7863 ft 255 kts 323°
2026-04-23 03:54 34.51302 -119.12104 7863 ft 256 kts 323°
2026-04-23 03:54 34.52727 -119.13404 7866 ft 256 kts 323°
2026-04-23 03:54 34.54155 -119.14700 7865 ft 257 kts 322°
2026-04-23 03:54 34.55583 -119.16000 7866 ft 256 kts 323°
2026-04-23 03:55 34.57010 -119.17301 7867 ft 256 kts 323°
2026-04-23 03:55 34.58435 -119.18596 7867 ft 256 kts 322°
2026-04-23 03:55 34.59859 -119.19892 7867 ft 256 kts 323°
2026-04-23 03:55 34.61268 -119.21175 7866 ft 256 kts 322°
2026-04-23 03:56 34.62715 -119.22493 7864 ft 257 kts 322°
2026-04-23 03:56 34.64126 -119.23777 7867 ft 257 kts 323°
2026-04-23 03:56 34.65555 -119.25078 7868 ft 258 kts 322°
2026-04-23 03:56 34.66968 -119.26427 7866 ft 258 kts 321°
2026-04-23 03:57 34.68366 -119.27786 7867 ft 258 kts 321°
2026-04-23 03:57 34.69765 -119.29151 7868 ft 258 kts 321°
2026-04-23 03:57 34.71157 -119.30515 7868 ft 257 kts 321°
2026-04-23 03:57 34.72555 -119.31879 7868 ft 257 kts 321°
2026-04-23 03:58 34.73943 -119.33240 7869 ft 257 kts 321°
2026-04-23 03:58 34.75338 -119.34603 7868 ft 257 kts 321°
2026-04-23 03:58 34.76726 -119.35960 7868 ft 256 kts 321°
2026-04-23 03:58 34.78110 -119.37326 7867 ft 256 kts 320°
2026-04-23 03:59 34.79451 -119.38749 7867 ft 256 kts 318°
2026-04-23 03:59 34.80781 -119.40188 7867 ft 256 kts 317°
2026-04-23 03:59 34.82110 -119.41631 7867 ft 256 kts 318°
2026-04-23 03:59 34.83434 -119.43074 7867 ft 255 kts 318°
2026-04-23 04:00 34.84759 -119.44511 7867 ft 255 kts 318°
2026-04-23 04:00 34.86083 -119.45954 7867 ft 255 kts 318°
2026-04-23 04:00 34.87407 -119.47395 7867 ft 255 kts 317°
2026-04-23 04:00 34.88734 -119.48837 7867 ft 255 kts 318°
2026-04-23 04:01 34.90057 -119.50279 7867 ft 255 kts 318°
2026-04-23 04:01 34.91378 -119.51713 7867 ft 255 kts 318°
2026-04-23 04:01 34.92697 -119.53151 7867 ft 254 kts 318°
2026-04-23 04:01 34.94019 -119.54588 7866 ft 254 kts 317°
2026-04-23 04:02 34.95340 -119.56023 7866 ft 254 kts 318°
2026-04-23 04:02 34.96654 -119.57456 7866 ft 254 kts 318°
2026-04-23 04:02 34.97530 -119.58406 7866 ft 254 kts 318°
2026-04-23 04:02 34.98846 -119.59840 7865 ft 254 kts 318°
2026-04-23 04:03 35.00167 -119.61274 7865 ft 254 kts 318°
2026-04-23 04:03 35.01486 -119.62711 7865 ft 254 kts 318°
2026-04-23 04:03 35.02805 -119.64145 7864 ft 254 kts 318°
2026-04-23 04:03 35.04128 -119.65580 7865 ft 254 kts 318°
2026-04-23 04:04 35.05446 -119.67018 7865 ft 254 kts 318°
2026-04-23 04:04 35.06767 -119.68451 7865 ft 254 kts 317°
2026-04-23 04:04 35.08085 -119.69885 7865 ft 254 kts 318°
2026-04-23 04:04 35.09401 -119.71318 7865 ft 254 kts 318°
2026-04-23 04:05 35.10719 -119.72749 7865 ft 253 kts 318°
2026-04-23 04:05 35.12033 -119.74180 7865 ft 253 kts 318°
2026-04-23 04:05 35.13350 -119.75611 7865 ft 253 kts 318°
2026-04-23 04:05 35.14667 -119.77042 7865 ft 253 kts 318°
2026-04-23 04:06 35.15979 -119.78472 7865 ft 253 kts 318°
2026-04-23 04:06 35.17296 -119.79900 7865 ft 253 kts 318°
2026-04-23 04:06 35.18612 -119.81334 7864 ft 253 kts 318°
2026-04-23 04:06 35.19927 -119.82763 7864 ft 253 kts 318°
2026-04-23 04:07 35.21244 -119.84192 7864 ft 253 kts 318°
2026-04-23 04:07 35.22539 -119.85604 7864 ft 253 kts 318°
2026-04-23 04:07 35.23854 -119.87030 7864 ft 253 kts 318°
2026-04-23 04:07 35.25186 -119.88479 7864 ft 253 kts 318°
2026-04-23 04:08 35.26484 -119.89892 7864 ft 253 kts 318°
2026-04-23 04:08 35.27801 -119.91320 7864 ft 253 kts 318°
2026-04-23 04:08 35.29133 -119.92771 7864 ft 253 kts 318°
2026-04-23 04:08 35.30430 -119.94179 7864 ft 253 kts 318°
2026-04-23 04:09 35.31746 -119.95609 7864 ft 253 kts 318°
2026-04-23 04:09 35.33061 -119.97040 7864 ft 253 kts 318°
2026-04-23 04:09 35.34377 -119.98468 7864 ft 253 kts 318°
2026-04-23 04:09 35.35694 -119.99902 7864 ft 253 kts 318°
2026-04-23 04:10 35.37008 -120.01327 7864 ft 253 kts 318°
2026-04-23 04:10 35.38328 -120.02762 7864 ft 253 kts 318°
2026-04-23 04:10 35.39641 -120.04191 7864 ft 253 kts 318°
2026-04-23 04:10 35.40961 -120.05623 7864 ft 253 kts 318°
2026-04-23 04:11 35.42275 -120.07054 7864 ft 253 kts 318°
2026-04-23 04:11 35.43596 -120.08487 7864 ft 253 kts 318°
2026-04-23 04:11 35.44911 -120.09916 7864 ft 253 kts 318°
2026-04-23 04:11 35.46255 -120.11313 7864 ft 253 kts 320°
2026-04-23 04:12 35.47608 -120.12693 7864 ft 253 kts 320°
2026-04-23 04:12 35.48965 -120.14067 7864 ft 253 kts 320°
2026-04-23 04:12 35.50323 -120.15441 7864 ft 253 kts 320°
2026-04-23 04:12 35.51681 -120.16817 7864 ft 253 kts 320°
2026-04-23 04:13 35.53041 -120.18190 7864 ft 253 kts 320°
2026-04-23 04:13 35.54398 -120.19566 7865 ft 253 kts 320°
2026-04-23 04:13 35.55759 -120.20943 7864 ft 253 kts 320°
2026-04-23 04:13 35.57119 -120.22318 7864 ft 253 kts 320°
2026-04-23 04:14 35.58476 -120.23694 7864 ft 253 kts 320°
2026-04-23 04:14 35.59837 -120.25068 7864 ft 253 kts 320°
2026-04-23 04:14 35.61194 -120.26444 7864 ft 253 kts 320°
2026-04-23 04:14 35.62534 -120.27800 7864 ft 253 kts 320°
2026-04-23 04:15 35.63894 -120.29174 7864 ft 253 kts 320°
2026-04-23 04:15 35.65254 -120.30554 7864 ft 253 kts 320°
2026-04-23 04:15 35.67973 -120.33302 7865 ft 253 kts 320°
2026-04-23 04:16 35.69333 -120.34679 7864 ft 253 kts 320°
2026-04-23 04:16 35.70693 -120.36052 7865 ft 253 kts 320°
2026-04-23 04:16 35.72050 -120.37428 7865 ft 253 kts 320°
2026-04-23 04:16 35.73413 -120.38806 7865 ft 253 kts 320°
2026-04-23 04:17 35.74770 -120.40179 7864 ft 253 kts 320°
2026-04-23 04:17 35.76130 -120.41556 7864 ft 253 kts 320°
2026-04-23 04:17 35.77491 -120.42930 7864 ft 253 kts 320°
2026-04-23 04:17 35.78851 -120.44308 7864 ft 253 kts 320°
2026-04-23 04:18 35.80210 -120.45683 7864 ft 253 kts 320°
2026-04-23 04:18 35.81573 -120.47061 7864 ft 253 kts 320°
2026-04-23 04:18 35.82934 -120.48439 7864 ft 253 kts 320°
2026-04-23 04:18 35.84298 -120.49818 7865 ft 253 kts 320°
2026-04-23 04:19 35.85657 -120.51194 7864 ft 253 kts 320°
2026-04-23 04:19 35.87021 -120.52574 7864 ft 253 kts 320°
2026-04-23 04:19 35.88384 -120.53951 7865 ft 254 kts 320°
2026-04-23 04:19 35.89745 -120.55330 7865 ft 254 kts 320°
2026-04-23 04:20 35.91112 -120.56711 7865 ft 254 kts 320°
2026-04-23 04:20 35.92476 -120.58091 7865 ft 254 kts 320°
2026-04-23 04:20 35.93840 -120.59473 7865 ft 254 kts 320°
2026-04-23 04:20 35.95207 -120.60854 7865 ft 254 kts 320°
2026-04-23 04:21 35.96573 -120.62236 7866 ft 254 kts 320°
2026-04-23 04:21 35.97938 -120.63620 7865 ft 254 kts 320°
2026-04-23 04:21 35.99304 -120.64998 7866 ft 254 kts 320°
2026-04-23 04:21 36.00667 -120.66380 7866 ft 253 kts 320°
2026-04-23 04:22 36.02029 -120.67757 7866 ft 253 kts 320°
2026-04-23 04:22 36.03396 -120.69137 7864 ft 253 kts 320°
2026-04-23 04:22 36.04757 -120.70518 7864 ft 253 kts 320°
2026-04-23 04:22 36.06103 -120.71877 7865 ft 253 kts 320°
2026-04-23 04:23 36.07484 -120.73275 7865 ft 253 kts 320°
2026-04-23 04:23 36.08846 -120.74654 7866 ft 253 kts 320°
2026-04-23 04:23 36.10211 -120.76031 7864 ft 253 kts 320°
2026-04-23 04:23 36.11573 -120.77411 7865 ft 253 kts 320°
2026-04-23 04:24 36.12936 -120.78790 7865 ft 253 kts 320°
2026-04-23 04:24 36.14283 -120.80150 7865 ft 253 kts 320°
2026-04-23 04:24 36.15645 -120.81531 7865 ft 253 kts 320°
2026-04-23 04:24 36.17009 -120.82907 7865 ft 253 kts 320°
2026-04-23 04:25 36.18371 -120.84287 7864 ft 253 kts 320°
2026-04-23 04:25 36.19735 -120.85666 7865 ft 253 kts 320°
2026-04-23 04:25 36.21097 -120.87041 7865 ft 253 kts 320°
2026-04-23 04:25 36.22457 -120.88420 7865 ft 253 kts 320°
2026-04-23 04:26 36.23823 -120.89798 7865 ft 253 kts 320°
2026-04-23 04:26 36.25182 -120.91174 7865 ft 253 kts 320°
2026-04-23 04:26 36.26546 -120.92553 7865 ft 253 kts 320°
2026-04-23 04:26 36.27908 -120.93928 7865 ft 253 kts 320°
2026-04-23 04:27 36.29269 -120.95308 7865 ft 253 kts 320°
2026-04-23 04:27 36.30631 -120.96683 7865 ft 253 kts 320°
2026-04-23 04:27 36.31993 -120.98060 7865 ft 253 kts 320°
2026-04-23 04:28 36.34723 -121.00819 7864 ft 253 kts 320°
2026-04-23 04:28 36.36089 -121.02202 7865 ft 253 kts 320°
2026-04-23 04:28 36.37456 -121.03584 7864 ft 253 kts 320°
2026-04-23 04:28 36.38829 -121.04951 7865 ft 253 kts 322°
2026-04-23 04:29 36.40226 -121.06277 7865 ft 253 kts 322°
2026-04-23 04:29 36.41625 -121.07595 7865 ft 253 kts 322°
2026-04-23 04:29 36.43029 -121.08920 7864 ft 253 kts 322°
2026-04-23 04:29 36.44432 -121.10236 7865 ft 253 kts 322°
2026-04-23 04:30 36.45833 -121.11557 7865 ft 253 kts 322°
2026-04-23 04:30 36.47236 -121.12876 7864 ft 253 kts 322°
2026-04-23 04:30 36.48640 -121.14194 7864 ft 253 kts 322°
2026-04-23 04:30 36.50041 -121.15515 7865 ft 253 kts 322°
2026-04-23 04:31 36.51431 -121.16819 7864 ft 253 kts 322°
2026-04-23 04:31 36.52852 -121.18158 7864 ft 253 kts 322°
2026-04-23 04:31 36.54255 -121.19478 7864 ft 253 kts 322°
2026-04-23 04:31 36.55660 -121.20797 7864 ft 253 kts 322°
2026-04-23 04:32 36.57065 -121.22121 7864 ft 253 kts 322°
2026-04-23 04:32 36.58472 -121.23441 7864 ft 253 kts 322°
2026-04-23 04:32 36.59875 -121.24763 7863 ft 253 kts 322°
2026-04-23 04:32 36.61259 -121.26065 7864 ft 253 kts 322°
2026-04-23 04:33 36.62683 -121.27402 7863 ft 253 kts 322°
2026-04-23 04:33 36.64069 -121.28709 7865 ft 253 kts 322°
2026-04-23 04:33 36.65474 -121.30030 7864 ft 253 kts 322°
2026-04-23 04:33 36.66878 -121.31349 7863 ft 253 kts 322°
2026-04-23 04:34 36.68299 -121.32687 7864 ft 253 kts 322°
2026-04-23 04:34 36.69683 -121.33986 7864 ft 253 kts 322°
2026-04-23 04:34 36.71109 -121.35328 7864 ft 255 kts 322°
2026-04-23 04:34 36.72531 -121.36667 7866 ft 257 kts 322°
2026-04-23 04:35 36.73945 -121.37994 7868 ft 259 kts 322°
2026-04-23 04:35 36.75384 -121.39352 7870 ft 260 kts 322°
2026-04-23 04:35 36.76831 -121.40710 7873 ft 261 kts 322°
2026-04-23 04:35 36.78283 -121.42077 7875 ft 262 kts 323°
2026-04-23 04:36 36.79739 -121.43448 7877 ft 262 kts 322°
2026-04-23 04:36 36.81197 -121.44817 7879 ft 263 kts 322°
2026-04-23 04:36 36.82658 -121.46196 7880 ft 263 kts 322°
2026-04-23 04:36 36.84121 -121.47569 7881 ft 264 kts 322°
2026-04-23 04:37 36.85583 -121.48947 7880 ft 264 kts 323°
2026-04-23 04:37 36.87051 -121.50329 7881 ft 264 kts 322°
2026-04-23 04:37 36.88518 -121.51706 7882 ft 264 kts 323°
2026-04-23 04:37 36.89983 -121.53089 7879 ft 264 kts 322°
2026-04-23 04:38 36.91453 -121.54468 7880 ft 264 kts 322°
2026-04-23 04:38 36.92922 -121.55855 7880 ft 264 kts 323°
2026-04-23 04:38 36.94392 -121.57235 7880 ft 264 kts 322°
2026-04-23 04:38 36.95861 -121.58617 7880 ft 264 kts 323°
2026-04-23 04:39 36.97331 -121.60001 7881 ft 265 kts 322°
2026-04-23 04:39 36.98803 -121.61385 7880 ft 265 kts 323°
2026-04-23 04:39 37.00275 -121.62773 7881 ft 265 kts 322°
2026-04-23 04:39 37.01746 -121.64153 7881 ft 265 kts 322°
2026-04-23 04:40 37.03216 -121.65540 7881 ft 265 kts 323°
2026-04-23 04:40 37.04687 -121.66922 7881 ft 265 kts 322°
2026-04-23 04:40 37.06161 -121.68310 7881 ft 265 kts 323°
2026-04-23 04:40 37.07630 -121.69695 7881 ft 265 kts 322°
2026-04-23 04:41 37.09108 -121.71081 7877 ft 265 kts 323°
2026-04-23 04:41 37.10581 -121.72472 7878 ft 265 kts 323°
2026-04-23 04:41 37.12059 -121.73861 7879 ft 265 kts 322°
2026-04-23 04:41 37.13535 -121.75250 7878 ft 265 kts 323°
2026-04-23 04:42 37.15010 -121.76640 7878 ft 265 kts 322°
2026-04-23 04:42 37.16486 -121.78026 7878 ft 265 kts 323°
2026-04-23 04:42 37.17960 -121.79416 7878 ft 265 kts 323°
2026-04-23 04:42 37.19435 -121.80801 7878 ft 265 kts 322°
2026-04-23 04:43 37.20910 -121.82190 7878 ft 265 kts 323°
2026-04-23 04:43 37.22380 -121.83575 7878 ft 265 kts 322°
2026-04-23 04:43 37.23857 -121.84961 7878 ft 265 kts 323°
2026-04-23 04:43 37.25329 -121.86350 7878 ft 265 kts 323°
2026-04-23 04:44 37.26801 -121.87732 7878 ft 265 kts 322°
2026-04-23 04:44 37.28275 -121.89121 7878 ft 265 kts 323°
2026-04-23 04:44 37.29746 -121.90506 7878 ft 264 kts 322°
2026-04-23 04:44 37.31222 -121.91891 7878 ft 264 kts 323°
2026-04-23 04:45 37.32693 -121.93279 7878 ft 264 kts 323°
2026-04-23 04:45 37.34166 -121.94662 7878 ft 264 kts 322°
2026-04-23 04:45 37.35617 -121.96030 7878 ft 264 kts 323°
2026-04-23 04:45 37.37090 -121.97415 7878 ft 264 kts 322°
2026-04-23 04:46 37.38565 -121.98802 7878 ft 264 kts 323°
2026-04-23 04:46 37.40036 -122.00189 7878 ft 264 kts 323°
2026-04-23 04:46 37.41508 -122.01569 7878 ft 264 kts 323°
2026-04-23 04:46 37.42980 -122.02959 7878 ft 264 kts 323°
2026-04-23 04:47 37.44455 -122.04344 7878 ft 264 kts 322°
2026-04-23 04:47 37.45937 -122.05740 7590 ft 272 kts 323°
2026-04-23 04:47 37.47439 -122.07155 7070 ft 264 kts 322°
2026-04-23 04:47 37.48884 -122.08512 6545 ft 257 kts 323°
2026-04-23 04:48 37.50307 -122.09854 6020 ft 253 kts 323°
2026-04-23 04:48 37.51713 -122.11172 5494 ft 250 kts 323°
2026-04-23 04:48 37.53100 -122.12480 4968 ft 248 kts 323°
2026-04-23 04:48 37.54475 -122.13771 4443 ft 246 kts 322°
2026-04-23 04:49 37.55839 -122.15053 3918 ft 244 kts 323°
2026-04-23 04:49 37.57195 -122.16330 3393 ft 242 kts 323°
2026-04-23 04:49 37.58528 -122.17579 2950 ft 233 kts 323°
2026-04-23 04:49 37.59824 -122.18662 2762 ft 216 kts 332°
2026-04-23 04:50 37.61230 -122.19278 2432 ft 210 kts 348°
2026-04-23 04:50 37.62651 -122.19405 2208 ft 201 kts
2026-04-23 04:50 37.63963 -122.19135 2199 ft 184 kts 15°
2026-04-23 04:50 37.64803 -122.18827 2033 ft 192 kts 13°
2026-04-23 04:51 37.65997 -122.18533 1819 ft 158 kts 359°
2026-04-23 04:51 37.67093 -122.18554 1204 ft 164 kts 348°
2026-04-23 04:51 37.68225 -122.18903 747 ft 168 kts 337°
2026-04-23 04:51 37.69124 -122.19806 364 ft 165 kts 307°
2026-04-23 04:52 37.69793 -122.20867 137 ft 143 kts 304°
2026-04-23 04:52 37.70375 -122.21769 19 ft 121 kts 307°
2026-04-23 04:52 37.70790 -122.22389 8 ft 50 kts 311°
2026-04-23 04:52 37.70990 -122.22593 9 ft 31 kts 335°
2026-04-23 04:53 37.71173 -122.22584 13 ft 26 kts 42°
2026-04-23 04:53 37.71293 -122.22415 12 ft 26 kts 47°
2026-04-23 04:53 37.71334 -122.22222 11 ft 23 kts 89°
2026-04-23 04:53 37.71424 -122.22060 9 ft 23 kts 47°
2026-04-23 04:54 37.71541 -122.22009 8 ft 21 kts 313°
2026-04-23 04:54 37.71641 -122.22022 9 ft 7 kts 54°
2026-04-23 04:54 37.71613 -122.21985 8 ft 7 kts 129°
2026-04-23 04:54 37.71590 -122.21959 8 ft 0 kts 138°